EHI
50 49 50 40 18 3 0 0 0 0 1 1 3 3 4 7 10 10 9 8 6 3 1 1 1 1 0 0 0 1 2 3 1 1 2 3 3 2 1 1 1 1 2
52 50 50 40 19 4 0 0 0 1 1 1 1 1 3 5 8 8 6 5 4 3 1 0 0 0 0 0 0 0 1 1 0 0 1 1 1 1 1 3 4 3 3
50 47 45 37 19 6 1 0 0 1 1 0 0 0 1 3 5 5 3 3 3 2 1 0 0 0 0 0 0 0 0 0 0 0 0 0 0 0 2 6 7 5 3
42 40 40 37 24 12 6 3 1 0 0 0 0 0 0 1 3 4 3 3 4 3 1 0 0 0 0 0 0 0 0 0 1 1 0 0 1 2 4 6 5 3 2
32 36 43 44 34 21 14 9 5 3 2 2 1 1 1 1 2 3 3 4 5 4 2 1 1 0 1 1 1 0 0 1 2 2 1 1 3 5 7 6 3 1 0
31 34 44 51 45 30 20 15 10 8 8 7 5 3 3 4 4 4 4 4 4 4 3 2 1 0 1 2 1 0 1 2 3 3 3 5 8 9 9 7 4 2 0
43 37 41 52 50 34 25 22 17 14 15 14 11 9 9 9 7 6 6 5 4 3 3 2 1 0 1 1 1 0 1 2 3 3 6 12 15 14 11 9 6 3 1
54 43 38 43 42 34 31 30 26 24 25 24 22 19 16 14 11 9 9 7 4 1 1 2 1 1 1 1 0 0 1 2 4 4 9 16 21 19 15 11 7 5 2
49 39 28 26 26 26 29 34 37 37 37 35 32 26 19 14 10 8 7 6 3 1 1 1 2 2 2 1 0 0 0 2 3 4 10 21 28 28 20 12 8 6 4
37 27 16 12 11 13 19 29 38 41 41 38 32 24 16 9 6 5 5 5 5 3 1 1 2 2 2 2 1 0 0 0 1 3 13 28 39 36 24 14 8 6 5
31 23 15 12 9 6 10 19 26 29 31 29 23 19 13 6 3 3 7 12 12 7 4 2 2 2 3 2 1 0 0 0 0 3 16 35 45 39 26 14 8 5 3
31 26 22 21 15 11 14 18 14 16 23 20 17 18 13 6 5 7 16 24 22 13 7 4 3 2 2 2 1 0 0 1 1 4 18 37 45 39 27 16 9 4 1
34 30 29 28 25 26 31 27 18 20 27 24 20 22 19 14 15 20 28 33 27 16 9 8 6 3 1 1 1 0 0 1 4 7 19 34 40 36 28 17 9 4 3
37 35 34 34 35 43 47 39 32 34 36 31 28 30 30 29 29 33 38 37 29 17 10 10 8 4 1 1 1 1 1 2 5 10 18 29 34 32 28 19 10 6 6
39 38 38 41 45 53 56 50 44 42 39 35 36 38 38 39 40 40 40 37 29 19 13 11 9 7 5 4 3 3 3 3 5 8 15 26 32 31 27 20 12 7 7
43 42 41 45 51 55 57 55 51 46 42 40 42 43 41 42 43 41 38 34 27 21 17 14 12 11 10 8 6 5 7 7 7 9 14 22 28 27 23 18 13 9 7
46 44 42 45 50 53 53 54 51 47 44 43 42 42 41 42 44 41 36 31 25 22 21 19 18 16 13 10 8 8 11 13 12 14 17 19 20 18 16 15 13 10 9
45 46 45 44 47 49 49 49 48 45 43 42 41 40 40 41 42 40 35 31 27 25 24 20 20 19 14 10 9 10 13 15 15 16 18 17 15 12 11 12 12 11 11
41 44 46 45 46 46 45 45 44 43 42 41 41 40 38 38 40 38 35 32 29 26 21 17 18 18 14 11 8 7 10 13 14 14 13 13 12 11 10 9 10 10 10
34 39 42 43 45 45 45 44 43 41 41 40 39 38 36 36 37 35 32 30 26 21 17 15 14 14 13 10 5 3 6 9 11 11 9 9 9 10 10 9 8 8 8
30 33 37 40 42 43 45 44 42 39 39 37 34 33 33 31 30 28 26 25 21 17 16 15 13 12 10 8 4 2 3 4 6 7 7 8 8 8 9 11 10 8 7
27 29 33 35 36 38 40 40 38 36 35 34 31 29 27 24 20 18 19 20 19 17 16 16 13 11 9 6 4 3 2 3 3 5 6 6 6 7 8 9 10 9 7
21 23 27 29 30 31 32 33 32 31 32 32 31 28 23 18 13 11 11 14 16 16 15 14 12 10 8 5 4 3 3 3 3 3 4 3 4 5 5 6 8 8 7
13 16 19 22 24 26 26 27 27 28 28 29 28 24 20 15 10 8 8 10 12 13 11 11 11 11 9 6 4 4 3 3 3 3 2 1 2 3 3 4 5 5 4
6 8 11 14 17 21 22 23 22 22 23 24 22 18 15 13 10 7 7 8 9 8 7 9 12 12 10 8 6 5 4 4 3 2 1 2 3 3 2 3 4 3 2
2 3 5 7 11 16 19 19 18 18 19 20 19 15 12 11 9 7 6 7 7 6 6 9 12 13 11 9 7 6 6 5 4 2 2 2 3 3 3 3 3 2 1
Wind_Speed
17 17 16 16 15 15 15 15 14 13 12 12 12 12 12 12 12 13 13 12 12 11 11 10 9 9 9 10 11 12 12 13 13 14 15 14 13 12 10 10 12 12 14
20 18 16 15 15 15 14 14 14 13 12 12 11 11 11 11 11 11 11 11 10 10 10 10 9 9 9 10 10 10 10 10 11 12 13 13 12 11 11 11 13 10 13
19 17 16 15 15 14 14 13 13 13 12 12 11 11 11 11 10 10 10 10 9 9 9 9 9 9 9 9 9 9 8 8 8 9 11 9 10 11 12 14 15 14 13
18 15 15 15 14 14 13 13 13 13 13 12 11 10 10 10 9 9 9 9 9 8 9 9 8 9 8 9 8 7 7 6 6 7 5 6 8 11 12 12 12 12 12
16 15 16 15 14 14 13 13 13 13 13 12 11 10 10 9 8 8 8 8 8 8 8 8 8 8 8 7 7 6 5 5 6 7 3 7 9 11 11 11 11 11 10
17 16 16 15 15 14 13 13 13 12 12 12 11 10 9 9 8 7 7 7 7 7 7 7 7 7 7 6 6 5 5 5 6 6 3 8 10 11 12 10 10 9 9
17 16 15 15 15 14 13 13 12 12 12 11 11 10 9 8 7 7 7 7 7 6 6 7 7 6 6 6 5 5 5 6 7 5 3 7 11 13 12 10 9 9 8
18 17 15 15 15 14 13 12 11 11 11 10 10 9 9 8 7 7 7 6 6 6 6 6 6 6 5 5 5 5 6 8 7 4 6 9 13 13 12 10 9 8 8
17 16 14 13 13 13 12 11 11 10 10 10 9 9 9 8 8 8 7 7 6 6 6 6 6 6 5 5 5 6 7 9 8 4 6 9 14 14 12 10 9 8 7
15 13 13 13 12 11 11 11 11 10 9 9 9 9 9 8 8 8 7 7 7 7 7 7 7 7 6 6 7 7 8 8 7 4 4 9 15 14 13 11 10 9 8
12 10 10 10 9 9 11 11 10 10 8 8 8 8 8 6 7 7 8 9 8 8 8 8 8 8 7 8 9 9 8 5 6 1 4 12 14 14 13 11 10 9 8
10 9 8 9 7 7 7 8 6 6 7 6 5 7 5 4 3 5 7 10 9 8 8 9 9 9 8 6 8 9 5 6 5 1 5 15 13 13 12 12 11 10 9
8 7 7 7 5 5 5 5 3 3 4 4 3 3 3 2 2 2 3 5 6 7 6 7 7 6 6 4 4 5 5 3 2 2 5 12 12 13 12 11 11 10 9
9 7 5 6 5 5 5 3 3 2 3 3 3 3 2 1 1 1 2 4 3 3 3 3 4 5 5 5 5 6 6 3 1 2 6 11 10 11 12 11 11 10 9
8 7 6 5 5 5 4 2 3 2 2 2 2 2 1 1 1 1 0 1 2 2 2 3 4 5 5 5 4 4 4 3 2 2 5 11 11 10 11 11 11 10 10
7 6 6 6 7 5 4 2 2 2 1 2 2 2 1 1 0 1 1 1 2 2 2 3 4 3 3 3 3 3 2 2 1 2 4 7 10 10 10 9 10 10 10
7 6 6 6 7 5 3 3 2 2 2 3 2 2 2 1 1 1 1 1 2 2 2 2 3 2 3 3 3 3 2 1 1 1 3 4 5 8 9 8 9 9 10
7 7 7 6 6 5 4 2 2 2 2 2 2 2 2 2 2 2 1 1 2 2 1 2 2 1 1 2 1 2 1 0 1 0 1 3 3 4 7 8 9 9 9
7 7 7 6 6 4 3 2 2 2 3 2 2 2 2 2 2 2 1 1 2 1 1 2 1 1 1 1 1 1 1 0 1 1 1 2 3 3 4 7 9 9 9
7 7 6 6 6 4 3 2 2 3 3 3 3 3 3 3 3 2 1 1 2 2 1 1 2 1 1 1 1 0 0 0 0 0 1 1 2 3 4 5 5 6 8
7 7 7 6 6 4 3 2 2 2 2 2 3 4 4 4 4 3 3 2 1 1 1 1 1 1 1 1 1 0 0 0 0 0 1 1 2 2 4 5 4 3 3
8 8 7 7 6 5 4 2 1 2 2 2 2 3 4 4 4 4 4 3 2 1 1 2 1 1 1 2 2 1 1 1 0 0 1 1 2 2 3 4 5 4 4
8 8 7 8 7 6 5 3 2 1 1 2 2 3 4 4 4 4 4 4 3 2 2 2 1 2 2 2 2 2 2 2 1 0 0 1 1 2 2 3 4 4 4
8 8 8 8 7 7 6 5 5 4 3 3 2 3 3 3 4 5 5 4 4 3 2 2 2 2 2 2 2 2 2 1 2 2 1 1 2 2 3 3 3 4 4
8 8 7 7 7 7 6 6 5 4 3 3 3 3 3 3 4 4 4 4 4 3 3 3 2 2 2 2 1 1 1 1 2 2 2 2 2 2 3 3 3 3 3
8 7 7 7 7 6 6 5 5 4 4 4 4 3 2 2 3 5 4 4 3 3 4 3 2 2 1 2 2 1 1 2 2 2 3 3 3 2 3 3 2 2 2
Wind_Direction
117 122 125 127 130 132 133 131 129 127 123 119 114 109 105 102 99 98 98 99 102 105 107 105 103 99 92 86 84 84 85 87 89 90 90 90 89 86 86 97 102 91 91
120 123 124 127 131 134 135 135 133 129 126 124 122 118 114 110 106 105 104 103 105 109 111 110 108 107 103 100 97 97 97 99 103 107 107 101 94 85 78 78 84 97 96
119 125 126 127 132 135 137 137 136 134 132 130 129 126 122 117 113 111 109 108 109 111 113 114 115 115 113 111 112 113 116 122 130 138 139 121 106 93 87 87 93 98 97
121 130 125 127 131 135 137 138 138 138 137 136 135 133 129 125 122 119 118 116 114 115 117 118 121 122 121 121 124 129 137 150 165 179 181 128 118 107 101 98 100 101 100
123 122 121 127 128 132 136 139 140 141 141 141 140 139 135 132 130 127 127 125 122 122 123 124 125 126 128 131 137 148 166 192 208 224 197 113 108 119 114 110 108 106 105
126 122 125 127 127 129 133 137 140 141 143 144 144 144 142 141 139 137 137 134 132 132 133 132 132 133 138 143 153 172 200 227 246 238 182 127 123 129 125 122 117 114 113
126 124 128 125 125 129 133 136 140 142 144 145 146 146 146 147 147 148 146 144 144 146 146 144 144 146 152 157 169 193 224 250 257 266 129 121 127 134 133 132 129 125 122
125 125 126 126 128 130 133 134 136 139 142 144 145 147 150 153 156 158 156 153 154 156 157 156 155 158 164 174 190 214 241 263 261 256 121 120 135 138 139 138 136 134 132
121 127 137 137 134 132 130 131 132 135 140 143 146 149 156 162 168 171 169 169 170 172 174 172 169 173 180 192 209 230 250 264 284 274 137 129 142 143 145 145 145 145 142
121 131 139 143 143 147 142 138 137 137 142 147 152 159 164 171 180 184 182 182 185 188 190 188 186 189 196 206 220 236 253 272 268 262 117 137 147 148 150 152 155 153 152
116 125 135 138 146 155 150 146 149 151 152 156 163 170 176 189 191 191 203 181 190 197 198 196 197 199 203 213 224 233 247 255 255 244 111 143 152 152 155 159 161 162 162
121 124 128 129 141 147 141 139 161 169 160 180 176 176 195 210 203 199 184 177 191 199 205 204 206 208 215 214 215 222 239 244 252 152 138 150 155 157 161 163 166 168 169
112 104 115 120 125 129 121 147 162 166 150 175 178 180 209 221 209 191 159 171 193 204 212 204 207 219 221 225 203 199 228 249 247 133 143 155 157 160 165 168 169 170 172
98 92 95 113 112 112 118 145 143 142 142 169 163 174 202 219 243 176 164 176 193 206 215 209 219 227 234 239 228 210 210 215 202 117 148 152 157 165 167 170 170 171 170
83 79 74 74 87 80 83 89 103 104 135 139 124 153 130 155 277 303 229 195 205 209 218 229 229 232 236 242 245 239 222 206 187 160 149 156 160 165 163 170 173 174 173
74 69 70 69 72 68 69 67 70 84 87 85 80 81 50 34 3 302 261 239 246 223 226 233 237 234 240 246 249 253 256 255 201 155 145 157 160 160 164 173 174 176 174
72 64 65 77 72 69 61 46 62 55 61 63 68 68 57 16 360 322 300 278 286 278 254 254 254 237 231 243 256 269 248 254 256 155 138 151 162 164 168 176 174 172 171
65 64 53 61 66 67 63 38 44 46 51 55 44 41 49 14 357 310 290 285 297 286 264 249 248 248 249 235 231 266 265 315 327 321 133 151 156 162 170 170 164 163 163
57 60 58 50 57 57 69 66 52 56 47 44 41 32 20 4 354 323 305 318 316 307 290 268 244 219 226 231 195 211 239 239 221 231 105 130 135 139 141 158 158 154 153
62 59 58 53 46 43 56 72 62 54 53 46 47 30 18 0 353 346 314 354 338 323 305 299 285 238 205 198 241 220 35 24 43 96 153 142 128 132 133 133 143 148 149
60 60 55 51 44 39 37 35 47 51 42 43 47 37 29 16 1 357 345 341 322 311 308 301 273 250 219 177 208 232 26 96 131 120 148 136 128 129 126 130 127 123 136
57 50 52 44 42 40 36 32 54 66 57 50 41 46 28 19 8 2 7 354 351 339 327 321 330 274 246 200 186 185 181 151 45 271 105 136 149 134 125 124 122 124 122
63 51 47 41 35 35 27 34 49 62 66 47 43 49 34 23 20 13 7 359 354 352 338 319 317 268 248 234 192 194 185 187 139 84 86 98 109 102 100 99 110 115 120
71 63 56 48 40 35 32 37 35 38 39 25 25 42 44 36 24 19 10 3 356 351 346 324 328 291 251 243 230 225 219 169 160 150 100 76 89 90 93 92 92 88 96
77 69 60 53 47 40 39 42 37 34 24 19 21 31 32 40 30 22 14 4 356 351 346 333 330 309 285 269 251 238 229 204 202 170 162 136 87 63 77 80 85 88 93
77 72 63 57 52 44 44 47 44 36 27 24 20 15 15 36 33 22 13 5 359 355 347 339 330 321 296 280 275 258 225 194 192 182 172 154 134 92 69 67 77 95 106